Temp_Advection
nan nan nan nan nan nan nan nan nan nan nan nan nan nan nan nan nan nan nan nan nan nan nan nan nan nan nan nan nan nan nan nan nan nan nan nan nan nan nan nan nan nan nan
nan -1 -1 -0 -0 -0 0 0 0 0 1 1 1 1 -0 0 0 -1 -0 1 1 1 1 0 1 2 1 1 1 1 0 1 1 1 0 -0 -0 -1 -1 -1 -1 0 nan
nan -0 0 0 -0 -0 -0 0 0 0 0 0 1 1 1 1 -0 0 1 0 0 0 0 0 1 1 0 0 1 1 0 0 0 0 -0 -0 -0 -0 -0 -0 0 1 nan
nan 0 0 0 -0 -0 -0 -0 -0 0 0 0 0 1 1 0 0 0 -0 0 -0 -0 0 1 2 1 1 0 0 0 0 -0 0 0 1 0 -0 -0 -0 -0 -0 0 nan
nan 0 -0 -0 -0 -0 -0 -0 -0 -0 0 0 0 0 0 0 0 0 -0 -0 -0 -0 0 0 1 1 1 1 0 -0 -0 0 0 0 1 0 -0 1 1 -1 -0 0 nan
nan -0 -0 0 0 -0 -0 -0 -0 -0 -0 -0 0 0 0 0 0 0 0 -0 -0 -0 0 0 0 1 1 1 0 -0 -0 0 -0 -0 1 1 0 1 1 0 -0 -0 nan
nan -0 -0 -0 -0 -0 -1 -0 -0 -0 -0 -0 -0 -0 0 0 0 0 -0 -0 -1 -1 -0 -0 0 0 1 1 1 -0 -0 0 0 0 -0 0 1 1 1 0 0 -0 nan
nan -0 -0 -0 -0 -0 -1 -1 -1 -1 -1 -1 -1 -0 -0 -0 0 0 0 0 0 -0 -0 -0 -0 -0 -0 0 1 1 -0 -1 -0 1 1 1 1 0 1 1 0 0 nan
nan -0 -0 -0 -0 -0 -1 -1 -1 -1 -1 -1 -1 -1 -1 -1 -1 -1 -1 -1 -0 -0 -0 0 -0 -0 -0 0 0 0 0 0 -0 0 0 0 0 0 1 1 0 0 nan
nan -0 -0 -0 -0 -0 -1 -0 -0 -1 -1 -1 -1 -1 -1 -1 -1 -1 -1 -1 -1 -1 -1 -1 -1 -1 -0 -0 -0 -0 -0 0 0 0 0 0 0 0 1 1 1 0 nan
nan 0 0 -0 -0 -0 -0 -0 -0 -0 -0 -1 -1 -0 -0 -0 -0 -0 -0 -1 -1 -1 -1 -1 -1 -1 -1 -1 -1 -0 0 0 -0 -0 -0 0 1 1 0 0 1 1 nan
nan 0 0 -0 0 0 -0 -0 -0 -0 -0 -0 -1 -1 -1 -0 -1 -1 -1 -1 -1 -1 -1 -0 -0 -0 -0 -1 -1 -1 -1 -0 -1 -1 -1 -1 -0 0 1 0 0 1 nan
nan 0 0 -0 -0 -0 -0 -0 0 -0 -1 -1 -1 -1 -1 -1 -0 -1 -1 -1 -1 -2 -2 -1 -1 -1 -1 -1 -1 -1 -1 -1 -0 -1 -1 -1 -1 -1 -0 0 0 1 nan
nan 0 0 -0 -0 -0 -0 -0 -0 -0 -1 -1 -1 -1 -1 -1 -1 -1 -1 -1 -1 -1 -2 -2 -2 -1 -1 -1 -1 -1 -1 -1 -1 -1 -1 -1 -0 -0 -0 -0 -0 -0 nan
nan 0 -0 -0 -0 -0 -0 -0 -0 -0 -1 -1 -1 -1 -1 -1 -2 -2 -2 -2 -1 -1 -1 -1 -1 -1 -1 -1 -1 -1 -1 -1 -1 -1 -1 -2 -1 0 -0 -1 -1 -0 nan
nan -0 -0 -0 -0 -0 -0 -0 -0 -0 -0 -1 -1 -1 -1 -1 -2 -2 -2 -2 -2 -2 -2 -1 -1 -1 -1 -1 -1 -1 -1 -1 -1 -2 -2 -1 -2 -1 0 -0 -1 -0 nan
nan -0 -0 -0 -0 -0 -0 -0 -0 -0 -0 -0 -1 -0 -1 -1 -1 -1 -1 -1 -1 -1 -1 -1 -1 -1 -1 -1 -1 -1 -1 -1 -1 -2 -3 -2 -1 -2 -2 -1 -0 -1 nan
nan -0 -0 -0 -0 -0 -0 -0 -0 -1 -1 -1 -1 -1 -1 -1 -1 -0 -1 -1 -1 -1 -1 -1 -1 -1 -1 -1 -1 -1 -1 -1 -1 -1 -2 -2 -2 -1 -2 -3 -2 0 nan
nan -0 -0 -0 -0 -0 -0 -0 -0 -0 -1 -1 -1 -1 -1 -1 -1 -1 -1 -1 -1 -1 -1 -1 -1 -1 -1 -1 -1 -1 -2 -2 -1 -0 -1 -1 -2 -1 -0 -2 -3 -1 nan
nan -0 -0 -0 -0 -0 -0 -0 -0 -0 -0 -1 -1 -1 -1 -1 -1 -1 -1 -1 -1 -1 -1 -1 -1 -1 -1 -1 -1 0 -1 -2 -2 -2 -1 -0 -1 -1 1 -0 -3 -2 nan
nan -0 0 0 -0 -0 -0 -0 -0 -0 -0 -0 -0 -0 -0 -1 -1 -1 -1 -1 -1 -1 -1 -1 -1 -1 -1 -1 -2 -1 0 -1 -2 -2 -2 -2 -2 -2 -1 0 -1 -2 nan
nan -0 -0 0 0 -0 -0 -0 0 -0 -0 -1 -1 -0 -0 -0 -1 -1 -1 -1 -1 -1 -1 -1 -1 -1 -1 -2 -2 -2 -1 -1 -2 -2 -1 -2 -3 -2 -1 -1 -1 -1 nan
nan 0 0 0 0 0 -0 -0 -0 -0 -1 -1 -1 -1 -1 -1 -0 -0 -1 -1 -1 -1 -1 -1 -1 -2 -2 -2 -2 -1 -2 -1 -1 -2 -1 -1 -2 -3 -2 -2 -1 -1 nan
nan -0 -0 -0 0 -0 -0 -0 -0 -0 -0 -0 -0 -0 -0 -0 -0 -0 -1 -1 -1 -1 -1 -1 -1 -1 -1 -1 -1 -1 -2 -3 -2 -2 -2 -2 -1 -2 -2 -2 -2 -1 nan
nan -0 -0 -0 -0 0 -0 0 0 -0 -0 -1 -0 -0 -0 -1 -0 -0 -0 -1 -1 -1 -1 -1 -1 -1 -1 -1 -1 -1 -1 -1 -2 -2 -2 -2 -2 -2 -1 -1 -2 -2 nan
nan nan nan nan nan nan nan nan nan nan nan nan nan nan nan nan nan nan nan nan nan nan nan nan nan nan nan nan nan nan nan nan nan nan nan nan nan nan nan nan nan nan nan
Wind_Speed
9 5 5 8 19 15 11 20 24 26 28 31 33 35 37 35 34 35 36 35 35 33 34 36 35 34 35 34 33 32 32 33 32 30 32 32 31 34 36 36 39 41 43
14 14 13 11 7 9 19 19 16 22 24 29 32 33 33 35 34 34 35 35 35 36 36 37 38 38 38 38 38 36 35 35 32 32 30 30 31 37 41 42 43 43 40
15 16 17 17 15 12 8 10 20 12 19 21 25 29 28 29 30 31 31 33 33 33 35 36 38 39 39 39 40 39 37 37 34 33 28 15 20 21 22 23 25 29 33
16 17 19 20 19 19 17 12 7 15 12 16 18 23 26 29 29 29 29 29 28 29 30 31 35 39 41 41 41 40 40 37 39 35 39 41 40 26 21 26 27 25 29
14 17 18 18 20 19 18 16 13 9 4 15 17 20 22 25 26 26 26 28 28 28 33 35 33 34 39 42 42 40 40 40 40 41 38 39 43 48 42 33 34 33 35
11 14 14 15 17 18 20 20 19 17 14 9 6 7 15 20 23 26 27 27 28 26 29 32 35 35 35 40 42 42 43 45 44 44 42 41 37 41 38 38 44 37 38
7 9 10 12 13 15 17 18 18 19 18 17 16 14 12 13 15 18 19 21 22 23 24 27 31 33 33 35 39 42 44 46 47 47 48 47 48 47 41 43 47 36 40
6 6 8 10 12 13 15 16 16 17 18 18 19 19 18 19 18 18 19 20 21 22 22 24 25 28 32 32 32 37 41 44 47 48 50 51 49 45 44 44 39 38 38
4 4 6 6 7 10 14 16 16 16 18 19 20 22 22 23 23 23 23 23 22 22 22 23 25 26 29 31 33 35 37 42 45 48 49 51 51 48 48 48 47 45 39
3 1 2 4 7 10 12 14 16 17 18 19 20 21 22 23 23 22 23 24 24 25 25 24 23 23 24 26 28 32 37 40 44 47 48 49 49 49 50 51 47 47 48
2 1 2 5 8 8 11 12 13 16 19 20 21 19 18 17 20 21 22 25 28 28 29 28 29 29 29 27 26 27 33 37 40 43 46 47 47 47 47 47 47 47 46
6 4 1 2 5 10 10 8 10 13 17 21 23 23 23 22 24 26 27 28 30 31 31 31 31 32 32 32 33 33 32 32 32 37 41 44 45 47 47 48 51 50 48
7 4 1 3 5 8 11 13 17 19 21 22 22 22 23 26 28 30 31 33 34 34 33 33 34 33 31 31 31 32 35 34 32 32 32 34 39 44 46 48 52 51 49
7 3 1 4 7 11 13 15 20 20 20 20 21 22 23 25 28 31 35 37 37 37 36 36 34 34 34 32 30 30 34 36 38 38 38 37 37 40 44 46 48 51 50
6 1 4 7 10 13 14 18 17 18 19 21 23 23 25 29 31 34 35 36 35 35 36 37 36 34 32 31 31 35 37 38 39 39 39 38 39 38 38 44 48 46 47
4 1 5 8 10 11 15 21 20 22 22 23 25 22 25 28 30 31 31 30 30 32 34 33 34 35 34 35 34 31 36 38 40 43 42 38 37 37 35 36 41 46 50
6 1 4 7 13 18 20 20 22 23 22 23 26 23 29 30 29 29 29 28 30 31 28 32 31 33 33 32 31 32 35 38 41 42 41 40 37 38 36 36 38 42 43
5 2 8 15 17 18 18 20 22 23 23 24 21 27 29 30 31 31 31 32 33 30 33 31 32 31 31 27 28 32 35 39 39 38 38 35 37 36 35 35 42 40 42
4 8 12 14 14 11 15 20 21 19 20 19 26 28 29 32 33 34 35 37 33 34 34 32 31 31 29 30 31 33 36 37 38 34 36 36 39 40 37 37 38 43 41
9 11 13 12 10 14 16 16 15 18 19 25 28 30 32 33 34 34 37 37 34 39 34 36 31 30 31 32 33 35 33 38 40 44 45 42 39 38 39 36 37 41 45
9 12 12 11 13 12 14 17 19 22 25 29 31 34 34 34 34 35 35 35 40 36 39 36 32 32 32 37 36 36 33 32 43 46 48 49 42 41 39 39 36 39 43
11 13 12 11 11 14 19 23 26 28 31 33 35 35 34 34 34 33 34 36 37 35 34 34 35 33 39 41 41 37 34 37 42 45 48 49 47 44 42 40 38 34 35
14 13 13 13 15 17 21 26 28 29 31 32 33 33 35 35 33 34 36 35 32 34 32 34 35 43 46 42 41 36 39 43 43 43 46 47 47 43 39 38 36 31 33
11 13 15 17 19 21 23 25 27 28 30 32 34 36 36 36 38 38 33 35 33 32 34 36 39 41 43 43 38 40 46 46 44 44 45 42 41 38 36 33 29 27 27
11 14 17 19 21 24 25 26 27 28 30 33 35 37 38 38 40 39 37 31 29 31 35 36 37 39 39 40 39 39 43 43 40 39 37 41 42 40 35 33 29 28 24
14 16 18 21 24 26 27 28 27 28 30 33 35 36 36 36 39 36 37 36 32 32 32 33 30 33 34 36 38 41 40 36 34 32 32 40 40 38 34 29 26 23 22
Wind_Direction
23 353 313 291 251 242 245 255 250 246 243 239 243 250 251 251 251 256 262 263 263 263 265 265 264 258 256 258 260 259 259 259 257 257 257 260 257 258 261 263 264 261 263
44 36 22 9 335 283 249 242 250 251 251 248 252 255 260 261 264 265 266 265 265 263 263 266 266 263 258 256 257 254 255 260 261 252 255 263 272 264 262 263 265 265 264
51 42 35 30 26 14 345 267 237 238 247 250 256 260 261 260 263 267 270 272 274 272 270 269 266 266 263 259 256 256 253 253 256 250 245 253 247 276 281 268 264 263 261
54 50 44 40 36 37 32 21 346 239 231 241 254 262 267 266 273 276 276 277 279 282 279 275 268 262 261 261 258 256 256 252 253 254 250 250 256 264 282 271 273 265 259
54 51 45 43 43 43 43 45 42 44 270 252 248 252 261 274 281 278 278 276 281 282 283 283 279 271 260 257 257 255 246 246 248 252 251 254 259 260 253 266 263 258 261
57 57 53 49 47 45 45 43 40 37 27 11 339 289 273 272 275 276 274 276 276 276 277 279 284 284 275 262 258 256 252 254 255 257 255 248 247 253 251 252 261 256 258
57 51 52 51 50 47 43 37 32 31 27 24 22 10 344 322 310 306 307 305 303 295 286 289 285 286 289 280 267 262 258 258 257 259 259 260 254 254 253 255 261 262 266
54 33 46 44 47 40 27 20 18 17 17 15 14 11 6 360 351 338 323 309 302 296 297 294 295 297 290 291 286 272 268 265 259 259 264 263 259 254 251 250 256 261 265
39 33 32 42 41 28 20 15 13 13 14 12 8 5 1 358 355 353 350 345 340 332 318 298 291 286 282 288 288 281 275 271 269 267 269 265 261 257 254 256 254 252 263
87 17 351 24 23 22 21 12 4 3 360 359 358 355 351 349 346 344 341 338 335 336 333 332 328 317 300 290 286 285 281 275 274 273 271 268 265 262 258 257 257 253 253
187 242 314 355 14 17 10 2 359 347 343 344 340 339 334 329 323 327 327 327 326 325 324 325 324 321 318 317 313 297 284 280 281 277 275 272 269 266 264 261 257 256 251
188 198 264 7 333 352 2 356 343 336 332 331 335 337 336 332 332 333 333 334 334 332 330 325 321 317 315 316 315 313 310 306 300 288 285 281 279 274 270 267 263 262 257
175 169 198 333 348 356 336 317 322 334 327 329 332 334 333 331 333 333 333 332 332 330 329 328 327 325 322 317 312 308 310 311 308 302 299 293 284 280 275 269 266 258 257
189 211 262 328 340 344 337 323 318 323 325 328 327 329 328 328 329 328 327 327 327 326 326 326 324 323 322 320 319 317 309 309 309 305 301 297 291 281 277 274 269 265 262
173 145 359 341 334 323 319 316 323 318 321 326 322 328 319 319 321 322 322 321 321 321 321 323 322 323 319 318 313 307 310 314 312 308 307 303 304 299 286 277 274 271 263
162 20 337 340 332 319 321 323 321 322 326 323 321 326 311 314 318 320 321 321 320 320 322 322 320 319 319 313 317 325 317 311 309 306 306 306 304 305 308 293 279 276 271
163 354 349 315 312 316 318 313 311 311 319 313 324 313 315 323 326 325 325 324 320 320 321 317 321 319 320 324 326 316 317 316 312 311 308 307 306 305 307 311 293 287 280
104 34 322 320 320 319 316 305 306 317 315 322 315 312 322 325 327 327 325 324 323 324 320 324 317 320 320 322 315 318 312 312 311 314 316 314 302 303 306 307 304 293 286
13 342 330 322 321 326 299 306 317 319 325 318 317 326 327 327 328 327 326 325 326 319 323 319 321 318 318 317 323 322 328 328 323 323 316 316 313 313 304 300 303 297 293
348 332 327 321 310 298 307 314 320 324 319 319 323 325 327 326 325 325 322 323 319 319 317 320 319 320 314 319 323 327 329 326 326 326 326 319 318 313 309 303 298 290 297
309 311 311 301 300 314 316 321 321 326 321 323 326 327 328 325 324 322 323 318 321 318 319 317 319 314 319 320 324 328 330 324 319 324 325 325 320 315 307 302 291 278 291
308 308 305 308 319 320 318 323 326 325 326 326 327 328 328 328 327 323 320 322 319 322 318 317 315 316 312 322 322 324 326 317 325 324 323 324 321 316 311 306 294 286 287
298 301 301 312 320 321 322 324 324 323 325 324 325 327 329 330 329 321 322 326 321 317 317 319 317 315 318 320 323 324 320 320 324 323 322 324 326 325 317 311 304 290 282
289 292 307 315 318 323 322 320 322 324 323 323 326 328 329 329 326 326 322 319 322 320 317 317 316 316 316 319 323 322 319 320 324 325 325 330 329 326 326 325 317 308 291
285 299 307 313 319 319 319 325 326 324 323 323 325 326 326 325 324 321 320 317 311 309 311 311 311 311 313 315 317 316 317 318 321 323 329 334 338 334 329 332 312 299 262
293 303 311 315 316 319 323 326 326 323 320 319 321 321 321 320 319 318 316 314 310 311 311 312 312 313 307 314 314 318 318 322 329 323 332 340 341 338 335 326 305 277 266
Height
1476 1474 1473 1472 1472 1473 1474 1477 1477 1477 1478 1477 1478 1479 1478 1479 1479 1478 1478 1478 1477 1477 1476 1475 1474 1475 1475 1474 1475 1475 1474 1473 1475 1476 1474 1473 1471 1468 1467 1466 1464 1463 1463
1478 1476 1474 1471 1469 1468 1469 1470 1472 1474 1475 1474 1474 1474 1474 1473 1474 1474 1473 1472 1472 1471 1470 1469 1468 1468 1468 1468 1468 1467 1467 1467 1469 1469 1470 1466 1463 1457 1457 1456 1454 1451 1453
1479 1476 1474 1471 1469 1467 1466 1466 1467 1468 1472 1473 1472 1472 1472 1471 1470 1469 1469 1469 1469 1469 1469 1468 1466 1464 1463 1461 1462 1462 1462 1461 1463 1463 1464 1460 1451 1448 1447 1445 1445 1443 1443
1479 1477 1474 1473 1471 1469 1467 1466 1465 1466 1467 1469 1470 1470 1470 1469 1468 1467 1466 1465 1464 1462 1459 1458 1457 1457 1456 1455 1455 1455 1453 1454 1452 1455 1453 1451 1448 1446 1442 1440 1438 1438 1437
1479 1478 1476 1475 1473 1471 1469 1467 1465 1465 1466 1467 1467 1467 1467 1465 1464 1463 1462 1461 1459 1457 1454 1452 1451 1450 1449 1446 1446 1446 1446 1446 1445 1443 1445 1442 1441 1439 1436 1429 1427 1429 1426
1480 1479 1479 1477 1475 1473 1471 1469 1468 1466 1466 1465 1464 1463 1462 1461 1459 1458 1456 1455 1454 1453 1451 1448 1446 1444 1442 1440 1440 1440 1439 1436 1434 1434 1433 1432 1431 1427 1428 1425 1420 1420 1418
1480 1479 1478 1476 1474 1473 1472 1471 1470 1468 1467 1465 1463 1462 1460 1459 1457 1455 1453 1451 1449 1448 1447 1445 1441 1438 1436 1434 1434 1433 1431 1429 1427 1425 1423 1423 1420 1420 1419 1417 1410 1411 1408
1480 1479 1478 1476 1474 1473 1472 1471 1469 1468 1467 1465 1464 1462 1459 1457 1455 1452 1450 1448 1445 1443 1442 1441 1439 1435 1431 1429 1428 1426 1425 1423 1421 1418 1416 1414 1412 1412 1411 1408 1409 1403 1400
1479 1479 1478 1476 1473 1472 1471 1471 1470 1468 1466 1465 1463 1461 1459 1457 1454 1452 1449 1446 1443 1440 1436 1434 1433 1431 1429 1426 1422 1419 1418 1415 1413 1410 1408 1406 1405 1403 1400 1399 1398 1396 1391
1479 1479 1478 1476 1474 1472 1471 1471 1470 1468 1466 1464 1462 1460 1458 1455 1453 1450 1447 1444 1440 1437 1434 1429 1426 1424 1423 1420 1417 1413 1411 1408 1406 1401 1397 1394 1393 1392 1389 1387 1386 1386 1382
1476 1477 1476 1475 1474 1472 1471 1470 1469 1468 1465 1463 1460 1458 1456 1453 1450 1447 1444 1441 1438 1434 1431 1426 1422 1417 1416 1414 1410 1406 1403 1399 1396 1393 1389 1386 1385 1382 1380 1378 1377 1375 1373
1472 1474 1475 1475 1475 1473 1471 1470 1467 1466 1464 1461 1458 1456 1453 1450 1447 1444 1441 1437 1433 1430 1426 1422 1417 1413 1409 1406 1403 1399 1395 1391 1387 1385 1381 1378 1377 1373 1371 1369 1366 1364 1363
1471 1471 1472 1473 1473 1471 1469 1467 1466 1464 1461 1459 1456 1453 1450 1447 1443 1440 1436 1432 1429 1426 1421 1418 1412 1406 1403 1398 1394 1391 1388 1384 1379 1376 1372 1368 1366 1361 1359 1356 1353 1349 1348
1468 1470 1471 1471 1471 1471 1467 1465 1464 1462 1459 1456 1453 1450 1447 1444 1440 1436 1432 1428 1423 1420 1416 1411 1406 1401 1396 1392 1388 1385 1380 1375 1371 1367 1363 1358 1355 1351 1348 1346 1341 1337 1336
1466 1468 1469 1470 1470 1469 1467 1465 1463 1460 1457 1454 1451 1447 1444 1440 1436 1433 1429 1424 1420 1415 1411 1405 1400 1395 1390 1386 1384 1378 1372 1366 1360 1356 1352 1348 1344 1341 1338 1336 1331 1328 1323
1463 1466 1467 1468 1467 1466 1464 1462 1459 1457 1455 1452 1449 1446 1440 1436 1432 1427 1422 1418 1414 1409 1405 1400 1394 1388 1384 1379 1376 1372 1365 1358 1352 1346 1341 1337 1333 1330 1326 1324 1321 1318 1315
1461 1463 1464 1464 1464 1463 1461 1458 1457 1454 1452 1449 1447 1443 1438 1433 1429 1424 1419 1414 1409 1403 1399 1394 1390 1384 1379 1375 1371 1365 1358 1352 1347 1341 1335 1328 1324 1320 1316 1312 1308 1304 1300
1460 1460 1462 1462 1461 1460 1459 1456 1455 1453 1450 1446 1442 1438 1434 1429 1423 1418 1412 1408 1403 1398 1392 1388 1384 1378 1374 1371 1366 1360 1354 1345 1337 1332 1327 1321 1315 1312 1309 1305 1299 1292 1288
1460 1461 1460 1460 1459 1459 1456 1455 1453 1451 1448 1443 1439 1434 1430 1424 1418 1412 1408 1403 1398 1393 1387 1382 1377 1374 1369 1364 1358 1351 1344 1338 1330 1324 1319 1316 1309 1303 1299 1295 1289 1282 1278
1459 1458 1458 1459 1458 1455 1452 1449 1447 1445 1442 1436 1432 1428 1423 1418 1411 1406 1402 1398 1394 1387 1382 1376 1372 1368 1362 1357 1352 1346 1338 1330 1325 1317 1310 1305 1301 1293 1290 1284 1279 1272 1270
1457 1457 1457 1456 1454 1451 1448 1445 1442 1440 1436 1431 1424 1420 1416 1412 1406 1401 1397 1392 1387 1382 1376 1370 1365 1359 1355 1350 1344 1340 1333 1327 1319 1310 1301 1295 1291 1284 1279 1275 1268 1262 1261
1454 1453 1452 1450 1449 1447 1443 1439 1436 1434 1428 1423 1419 1415 1411 1406 1401 1396 1391 1386 1381 1375 1370 1364 1358 1353 1348 1343 1338 1332 1329 1322 1314 1304 1296 1288 1282 1274 1267 1262 1257 1253 1249
1450 1449 1448 1446 1444 1441 1438 1434 1432 1428 1421 1419 1415 1410 1404 1399 1396 1392 1386 1380 1377 1371 1365 1360 1353 1346 1340 1334 1329 1325 1320 1313 1306 1299 1291 1281 1272 1263 1255 1250 1246 1242 1237
1446 1445 1444 1442 1440 1437 1434 1432 1427 1422 1417 1413 1408 1402 1397 1394 1390 1386 1382 1377 1371 1366 1361 1355 1348 1341 1335 1329 1325 1320 1313 1305 1297 1290 1281 1273 1265 1256 1248 1241 1235 1232 1229
1443 1442 1440 1437 1434 1432 1430 1426 1421 1417 1412 1407 1402 1397 1393 1389 1384 1380 1376 1372 1369 1364 1358 1352 1347 1340 1332 1327 1324 1317 1308 1300 1293 1284 1276 1266 1255 1247 1241 1236 1232 1229 1227
1439 1437 1435 1433 1430 1427 1423 1420 1416 1413 1408 1403 1398 1394 1389 1385 1380 1374 1368 1365 1362 1356 1352 1348 1343 1337 1331 1324 1318 1310 1302 1294 1287 1280 1272 1262 1253 1245 1240 1236 1232 1228 1227